Salzburg Flughafen, Austria

11:11 AM CET on January 19, 2018 (GMT +0100)
Salzburg Flughafen

Weather History for LOWS - June, 2013

Change the Weather History Date:

Monday, June 17, 2013

  Actual Average Record
Temperature  
Mean Temperature 77 °F -  
Max Temperature 90 °F 71 °F 90 °F (2013)
Min Temperature 64 °F 53 °F 44 °F (2000)
Cooling Degree Days 12    
Growing Degree Days 27 (Base 50)    
Moisture  
Dew Point 64 °F    
Average Humidity 64    
Maximum Humidity 94    
Minimum Humidity 34    
Precipitation  
Precipitation 0.00 in 0.21 in - ()
Sea Level Pressure  
Sea Level Pressure 29.98 in    
Wind  
Wind Speed 7 mph ()    
Max Wind Speed 14 mph    
Max Gust Speed -    
Visibility 7.4 miles    
Events      
Averages and records for this station are not official NWS values.
T = Trace of Precipitation, MM = Missing Value Source: Averaged Metar Reports

Daily Weather History Graph

Daily Weather History Graph

Search for Another Location

Airport or City:

Trip Planner

Search our weather history database for the weather conditions in past years. The results will help you decide how hot, cold, wet, or windy it might be!

Date:

Astronomy

Jun. 17, 2013 Rise Set
Actual Time 5:08 AM CEST 9:09 PM CEST
Civil Twilight 4:27 AM CEST 9:50 PM CEST
Nautical Twilight 3:30 AM CEST 10:47 PM CEST
Astronomical Twilight 1:57 AM CEST 12:21 AM CEST
Moon 2:05 PM CEST (6/17) 1:02 AM CEST (6/17)
Length of Visible Light 17h 22m
Length of Day
16h 00m
First Quarter, 57% of the Moon is Illuminated
Jun 17
First Quarter
Jun 23
Full
Jun 30
Last Quarter
Jul 8
New
Jul 16
First Quarter

Hourly Weather History & Observations

Time (CEST) Temp. Heat Index Dew Point Humidity Pressure Visibility Wind Dir Wind Speed Gust Speed Precip Events Conditions
12:20 AM 66.2 °F - 64.4 °F 94% 30.04 in 6.2 mi South 5.8 mph - N/A   Partly Cloudy
12:50 AM 66.2 °F - 62.6 °F 88% 30.04 in 6.2 mi South 8.1 mph - N/A   Partly Cloudy
1:20 AM 64.4 °F - 62.6 °F 94% 30.04 in 6.2 mi South 8.1 mph - N/A   Partly Cloudy
1:50 AM 66.2 °F - 62.6 °F 88% 30.04 in 6.2 mi South 8.1 mph - N/A   Unknown
2:00 AM 65 °F - 62 °F 88% 30.01 in 22 mi South 8.9 mph - -  
2:20 AM 64.4 °F - 62.6 °F 94% 30.04 in 6.2 mi South 6.9 mph - N/A   Unknown
2:50 AM 66.2 °F - 60.8 °F 83% 30.04 in 6.2 mi SSE 8.1 mph - N/A   Unknown
3:20 AM 66.2 °F - 62.6 °F 88% 30.04 in 6.2 mi SE 6.9 mph - N/A   Unknown
3:50 AM 66.2 °F - 60.8 °F 83% 30.04 in - SSE 8.1 mph - N/A   Clear
4:20 AM 64.4 °F - 60.8 °F 88% 30.04 in - SSE 8.1 mph - N/A   Clear
4:50 AM 64.4 °F - 60.8 °F 88% 30.04 in - SSE 10.4 mph - N/A   Clear
5:00 AM 65 °F - 61 °F 82% 30.00 in 19 mi SSE 11.2 mph - -   Scattered Clouds
5:20 AM 66.2 °F - 60.8 °F 83% 30.04 in - SE 9.2 mph - N/A   Clear
5:50 AM 66.2 °F - 60.8 °F 83% 30.04 in - SSE 9.2 mph - N/A   Clear
6:20 AM 66.2 °F - 60.8 °F 83% 30.04 in - SSE 10.4 mph - N/A   Clear
6:50 AM 68.0 °F - 60.8 °F 78% 30.04 in - SSE 13.8 mph - N/A   Clear
7:20 AM 68.0 °F - 62.6 °F 83% 30.01 in - SSE 11.5 mph - N/A   Clear
7:50 AM 71.6 °F - 62.6 °F 73% 30.01 in - SSE 12.7 mph - N/A   Clear
8:00 AM 71 °F - 62 °F 67% 29.98 in 22 mi SSE 13.4 mph - -   Scattered Clouds
8:20 AM 73.4 °F - 62.6 °F 69% 30.01 in - SE 13.8 mph - N/A   Clear
8:50 AM 75.2 °F - 62.6 °F 65% 30.01 in - SSE 11.5 mph - N/A   Clear
9:20 AM 75.2 °F - 62.6 °F 65% 30.01 in - SSE 13.8 mph - N/A   Clear
9:50 AM 78.8 °F - 64.4 °F 61% 30.01 in - SE 10.4 mph - N/A   Clear
10:20 AM 80.6 °F 82.3 °F 64.4 °F 58% 30.01 in 6.2 mi SE 8.1 mph - N/A   Partly Cloudy
10:50 AM 82.4 °F 83.9 °F 64.4 °F 54% 30.01 in 6.2 mi SE 6.9 mph - N/A   Partly Cloudy
11:00 AM 82 °F - 64 °F 44% 29.93 in 22 mi SE 6.7 mph - -   Scattered Clouds
11:20 AM 84.2 °F 85.6 °F 64.4 °F 51% 29.98 in 6.2 mi SSE 5.8 mph - N/A   Partly Cloudy
11:50 AM 84.2 °F 85.0 °F 62.6 °F 48% 29.98 in 6.2 mi SE 4.6 mph - N/A   Partly Cloudy
12:20 PM 86.0 °F 88.2 °F 66.2 °F 51% 29.98 in 6.2 mi NNE 4.6 mph - N/A   Partly Cloudy
12:50 PM 86.0 °F 87.3 °F 64.4 °F 48% 29.98 in 6.2 mi North 5.8 mph - N/A   Partly Cloudy
1:20 PM 87.8 °F 88.5 °F 62.6 °F 43% 29.98 in 6.2 mi North 5.8 mph - N/A   Partly Cloudy
1:50 PM 89.6 °F 91.1 °F 64.4 °F 43% 29.98 in 6.2 mi North 6.9 mph - N/A   Partly Cloudy
2:00 PM 89 °F - 64 °F 34% 29.88 in 22 mi North 6.7 mph - -   Scattered Clouds
2:20 PM 89.6 °F 91.1 °F 64.4 °F 43% 29.95 in 6.2 mi NNE 6.9 mph - N/A   Partly Cloudy
2:50 PM 89.6 °F 92.2 °F 66.2 °F 46% 29.95 in 6.2 mi NNE 8.1 mph - N/A   Partly Cloudy
3:20 PM 89.6 °F 91.1 °F 64.4 °F 43% 29.95 in 6.2 mi NE 9.2 mph - N/A   Partly Cloudy
3:50 PM 91.4 °F 93.2 °F 64.4 °F 41% 29.95 in 6.2 mi NNE 8.1 mph - N/A   Partly Cloudy
4:20 PM 91.4 °F 92.1 °F 62.6 °F 38% 29.92 in 6.2 mi NE 8.1 mph - N/A   Partly Cloudy
4:50 PM 89.6 °F 92.2 °F 66.2 °F 46% 29.92 in 6.2 mi NE 9.2 mph - N/A   Partly Cloudy
5:00 PM 90 °F - 66 °F 35% 29.84 in 22 mi NE 8.9 mph - -   Scattered Clouds
5:20 PM 91.4 °F 93.2 °F 64.4 °F 41% 29.92 in 6.2 mi ENE 9.2 mph - N/A   Partly Cloudy
5:50 PM 89.6 °F 91.1 °F 64.4 °F 43% 29.92 in 6.2 mi NNE 8.1 mph - N/A   Partly Cloudy
6:20 PM 89.6 °F 91.1 °F 64.4 °F 43% 29.92 in 6.2 mi ENE 8.1 mph - N/A   Partly Cloudy
6:50 PM 89.6 °F 91.1 °F 64.4 °F 43% 29.92 in 6.2 mi NE 10.4 mph - N/A   Partly Cloudy
7:20 PM 89.6 °F 91.1 °F 64.4 °F 43% 29.92 in 6.2 mi NE 6.9 mph - N/A   Partly Cloudy
7:50 PM 87.8 °F 91.4 °F 68.0 °F 52% 29.92 in 6.2 mi NNE 6.9 mph - N/A   Partly Cloudy
8:00 PM 88 °F - 68 °F 42% 29.84 in 19 mi NNE 6.7 mph - -   Scattered Clouds
8:20 PM 87.8 °F 91.4 °F 68.0 °F 52% 29.92 in 6.2 mi North 4.6 mph - N/A   Partly Cloudy
8:50 PM 82.4 °F 85.4 °F 68.0 °F 62% 29.95 in 6.2 mi Variable 2.3 mph - N/A   Partly Cloudy
9:20 PM 80.6 °F 83.2 °F 68.0 °F 65% 29.95 in - NNW 4.6 mph - N/A   Clear
9:50 PM 77.0 °F - 69.8 °F 78% 29.95 in - Variable 2.3 mph - N/A   Clear
10:20 PM 75.2 °F - 66.2 °F 73% 29.98 in - South 4.6 mph - N/A   Clear
10:50 PM 75.2 °F - 66.2 °F 73% 29.98 in - SSE 3.5 mph - N/A   Clear
11:00 PM 74 °F - 66 °F 69% 29.92 in 19 mi SSE 4.5 mph - -  
11:20 PM 73.4 °F - 64.4 °F 73% 29.98 in - South 4.6 mph - N/A   Clear
11:50 PM 73.4 °F - 64.4 °F 73% 29.98 in 6.2 mi South 5.8 mph - N/A   Unknown